Location: Bjelajci
(45.0103°N, 16.1758°E)
Time: 04:34:37
(UTC+00:00)

Cosmos 2034 Rocket - Pass Details

Date: 14 July 2020
Orbit: 959 x 1000 km, 82.9° (Epoch: 11 August)

Event Time Altitude Azimuth Distance (km) Brightness Sun altitude
Exits shadow 02:09:00 - 176° (S) 3,670 6.6 -10.8°
Rises 02:09:07 0° 176° (S) 3,626 6.6 -10.8°
Reaches altitude 10° 02:11:37 10° 173° (S) 2,684 5.9 -10.5°
Maximum altitude 02:17:40 64° 93° (E) 1,057 4.4 -9.8°
Drops below altitude 10° 02:23:46 10° 14° (NNE) 2,710 7.3 -9.0°
Sets 02:26:18 0° 11° (NNE) 3,665 8.0 -8.7°
